This demonstration page uses our WeatherBlox Daily Observations layout. Learn more.

Left ArrowRight Arrow

Hourly Observations for October 17, 2019

Temp ( °F °C ) Dew Point ( °F °C ) Humidity (%) Winds ( mph kmh ) Pressure ( in mb ) Visibility ( mi km ) Precip ( " mm )
12:53 am 00:53 Cloudy 48 8.9 37 2.8 66 66 W 8 13 29.98 1015 10 16 0.00 0.00
1:53 am 01:53 Clear 45 7.2 38 3.3 77 77 W 5 7 29.98 1015 10 16 0.00 0.00
2:53 am 02:53 Clear 42 5.6 37 2.8 82 82 W 5 7 29.99 1016 10 16 0.00 0.00
3:53 am 03:53 Clear 42 5.6 37 2.8 82 82 W 6 9 29.98 1015 10 16 0.00 0.00
4:53 am 04:53 Clear 43 6.1 37 2.8 80 80 W 6 9 29.98 1015 10 16 0.00 0.00
5:53 am 05:53 Clear 41 5 36 2.2 82 82 W 5 7 29.99 1016 10 16 0.00 0.00
6:53 am 06:53 Clear 40 4.4 36 2.2 86 86 W 5 7 29.99 1016 10 16 0.00 0.00
7:53 am 07:53 Sunny 42 5.6 37 2.8 82 82 W 5 7 30.00 1016 10 16 0.00 0.00
8:53 am 08:53 Sunny 44 6.7 37 2.8 76 76 W 5 7 30.01 1016 10 16 0.00 0.00
9:53 am 09:53 Sunny 48 8.9 38 3.3 68 68 WNW 6 9 30.02 1017 10 16 0.00 0.00
10:53 am 10:53 Sunny 51 10.6 38 3.3 61 61 W 8 13 30.03 1017 10 16 0.00 0.00
11:53 am 11:53 Mostly Cloudy 53 11.7 37 2.8 55 55 WNW 12 19 30.03 1017 10 16 0.00 0.00
12:53 pm 12:53 Mostly Sunny 56 13.3 36 2.2 47 47 WNW 14 22 30.03 1017 10 16 0.00 0.00
1:53 pm 13:53 Sunny 58 14.4 35 1.7 42 42 W 8 13 30.00 1016 10 16 0.00 0.00
2:53 pm 14:53 Mostly Sunny 58 14.4 36 2.2 44 44 WNW 8 13 29.98 1015 10 16 0.00 0.00
3:53 pm 15:53 Mostly Sunny 60 15.6 35 1.7 39 39 NW 14 22 29.97 1015 10 16 0.00 0.00
4:53 pm 16:53 Sunny 59 15 35 1.7 41 41 WNW 12 19 29.98 1015 10 16 0.00 0.00
5:53 pm 17:53 Sunny 58 14.4 34 1.1 41 41 WNW 10 17 29.98 1015 10 16 0.00 0.00
6:53 pm 18:53 Sunny 54 12.2 36 2.2 51 51 W 6 9 29.99 1016 10 16 0.00 0.00
7:53 pm 19:53 Clear 47 8.3 38 3.3 71 71 NW 3 6 30.00 1016 10 16 0.00 0.00
8:53 pm 20:53 Mostly Clear 44 6.7 38 3.3 79 79 WNW 5 7 30.02 1017 10 16 0.00 0.00
9:53 pm 21:53 Clear 41 5 38 3.3 89 89 Calm 30.03 1017 10 16 0.00 0.00
10:53 pm 22:53 Clear 38 3.3 36 2.2 93 93 Calm 30.05 1018 10 16 0.00 0.00
11:53 pm 23:53 Clear 37 2.8 36 2.2 96 96 Calm 30.05 1018 10 16 0.00 0.00

Powered by AerisWeather